Location: Arbon
(43.0005°N, 0.7472°E)
Time: 01:50:34
(UTC+00:00)

SJ 16-02 - Pass Details

Date: 07 August 2020
Orbit: 607 x 616 km, 75.0° (Epoch: 19 September)

Event Time Altitude Azimuth Distance (km) Brightness Sun altitude
Exits shadow 01:25:11 22° 93° (E) 1,339 3.2 -27.7°
Drops below altitude 10° 01:28:22 10° 47° (NE) 1,979 4.8 -27.5°
Sets 01:30:59 0° 33° (NNE) 2,887 6.0 -27.3°
